Vertical_Velocity
-2 4 -2 -1 -0 -4 1 -0 -4 -1 3 2 -1 -3 -2 -1 3 -5 7 -2 -1 0 1 0 2 2 1 1 1 -1 -1 -1 -0 1 1 1 1 1 -0 0 0 1 0
1 -3 -1 13 -13 -1 3 -3 -1 1 -4 -0 1 -1 -2 -2 -1 -1 4 1 0 -0 1 1 -1 -1 1 -0 -1 -1 -0 -0 0 1 1 1 2 1 1 1 1 0 1
-1 0 1 5 0 5 -0 -10 6 -1 1 -4 4 3 -1 -1 -1 -4 -7 9 2 1 1 1 0 1 -0 1 0 -1 1 1 -0 -1 1 0 1 1 1 0 -0 -1 -0
-2 2 -3 1 -1 0 5 5 5 4 -1 2 -8 -3 1 -2 -2 -2 -8 -2 1 -4 -2 1 3 1 1 1 -0 0 -0 0 -0 -1 -1 -1 0 2 1 0 1 -0 -1
-3 1 3 -3 -0 -3 -0 -0 -0 4 1 -3 1 -1 -4 -3 -2 -2 -4 -7 14 -4 -2 1 -1 -0 -1 0 0 -1 -2 -1 0 0 0 -0 0 -0 1 0 0 -1 -0
0 -1 -1 0 -1 -2 -1 -5 -2 -2 -2 4 -3 -9 1 -2 -5 -2 -1 -7 5 4 1 4 -1 -2 -0 -0 0 -1 -0 -3 -3 -2 1 1 1 1 1 1 1 -0 0
-1 -4 -3 -1 -5 1 -0 1 3 -1 1 3 1 -0 -0 0 0 -2 -0 0 -9 8 5 6 2 3 -0 -2 -2 -1 2 0 -3 -3 -3 1 1 1 0 1 1 1 -0
8 5 0 -1 -1 -8 1 -1 6 1 4 1 2 -8 2 3 4 3 2 -2 2 0 -2 3 5 0 9 1 -0 1 2 4 1 -3 0 -2 2 1 -1 -2 1 2 2
-3 7 -0 4 3 -6 -3 -3 2 2 3 -3 3 2 -11 6 1 2 6 0 -3 2 -2 3 3 -4 6 4 3 1 -3 -4 -2 -1 -3 -0 -2 2 2 -1 -1 -2 -0
5 1 -3 -3 -3 4 -5 0 0 1 8 -5 -1 1 11 0 -17 -10 6 4 4 0 -0 3 5 -2 3 2 10 0 1 -1 -3 -0 -1 1 -1 -2 0 -0 1 0 1
2 2 2 7 10 0 -2 2 1 -0 -1 1 -10 15 8 27 15 -19 -4 12 4 4 2 -1 -1 2 1 -11 4 11 3 3 -1 -5 0 -5 -1 -4 1 2 -2 -1 -0
3 3 3 2 -3 8 8 4 0 -1 4 5 -5 4 -6 11 3 3 44 4 76 -9 4 -9 2 4 -2 1 6 18 2 3 3 -1 1 -1 0 0 -1 -2 4 4 1
-1 1 0 3 4 4 2 -2 -2 -1 7 1 13 -12 8 79 11 -7 -10 15 3 -17 4 0 -4 10 5 4 -11 18 -4 7 4 3 -0 -1 -1 -1 -1 -0 -1 2 2
-1 -1 2 2 4 5 3 1 3 -1 1 9 4 -2 8 -3 9 -4 -11 8 1 0 7 8 -1 4 17 15 -13 20 -1 -2 4 7 3 -2 -4 -1 -1 1 1 0 -2
-7 -4 -8 -1 -1 2 5 4 3 -1 -0 1 6 3 -1 5 -6 -1 8 -6 6 -9 -10 -1 -1 4 27 18 5 14 1 2 3 1 9 2 -1 -2 -0 3 5 1 -1
-6 -4 0 -1 1 -3 -3 -7 -3 1 -10 -1 -2 1 5 4 6 -2 -5 -2 -5 3 -11 4 3 -20 -5 -7 -1 1 7 4 3 -4 7 2 -4 3 1 2 -2 1 2
-8 -10 -12 -10 -3 -4 -2 0 4 3 -5 -6 1 -6 -3 8 4 3 1 -8 3 2 7 -12 -10 -2 4 -4 10 2 17 5 -0 4 7 -1 1 2 0 -1 3 2 2
0 -1 0 1 2 3 9 0 -5 -4 -5 -3 -3 1 -8 3 4 4 -2 -1 -2 7 13 4 -2 5 11 2 7 -5 16 -3 2 9 9 2 2 6 22 -3 1 2 2
-2 -3 -6 3 2 -1 -3 2 1 -3 -0 -2 -1 -3 0 5 2 3 -1 2 -0 -0 4 -8 -2 3 13 -8 12 -9 15 -1 -0 7 10 9 16 16 -3 -1 -3 4 7
14 3 3 -3 -1 -1 -0 0 -5 -0 -3 18 3 15 20 -3 4 9 1 1 3 3 9 -3 -4 4 5 -7 14 -5 9 -2 4 6 11 11 3 0 1 -4 6 2 0
9 8 -1 -2 -2 2 7 -1 1 3 9 9 6 1 1 6 12 -3 1 5 1 7 5 10 6 -3 6 4 15 2 5 1 5 9 9 5 6 -2 -6 3 6 4 1
13 3 -1 -2 -2 -1 3 -2 3 5 3 6 9 5 8 3 5 11 11 14 0 12 13 12 11 5 11 11 -1 5 -1 -0 -4 7 13 7 -1 1 4 2 6 0 6
2 3 -1 -1 -3 -5 1 -2 0 5 2 -4 9 -1 4 4 4 6 8 15 17 10 7 10 13 7 4 3 11 1 2 3 2 10 0 -2 3 8 -0 10 -1 3 3
2 0 -0 -2 -7 -0 -4 -1 -2 1 3 -1 1 6 4 8 8 4 4 9 8 10 8 4 8 12 3 3 6 1 7 0 -4 6 5 2 14 7 -2 6 -3 4 -1
-0 -1 -4 -1 -5 2 -10 -3 -1 1 4 1 -4 12 7 10 7 11 5 10 9 6 3 13 7 13 9 6 4 6 4 8 14 10 7 7 5 -1 0 -1 7 -2 0
-4 -5 -1 -4 -3 1 -6 -3 0 0 4 3 4 10 9 13 4 8 9 7 4 -1 -6 14 18 8 15 19 18 12 18 7 8 5 6 -7 7 1 -0 -0 9 -5 -3
Height
5821 5819 5817 5818 5821 5820 5819 5819 5819 5820 5821 5820 5819 5819 5820 5820 5821 5821 5824 5822 5822 5822 5823 5823 5824 5825 5824 5824 5824 5824 5825 5825 5825 5824 5824 5823 5822 5821 5820 5819 5819 5818 5818
5815 5812 5811 5809 5810 5812 5815 5813 5812 5814 5814 5815 5816 5814 5813 5813 5814 5814 5817 5816 5816 5817 5817 5817 5817 5818 5819 5819 5819 5818 5818 5818 5818 5818 5817 5816 5815 5814 5813 5813 5813 5812 5812
5809 5807 5806 5805 5806 5805 5806 5803 5804 5806 5808 5809 5810 5809 5808 5807 5806 5807 5807 5812 5810 5810 5811 5811 5811 5811 5812 5812 5812 5812 5811 5810 5810 5809 5809 5808 5808 5807 5807 5806 5806 5806 5806
5799 5800 5799 5798 5797 5796 5797 5799 5798 5798 5798 5800 5800 5801 5800 5799 5799 5800 5799 5802 5805 5802 5803 5804 5804 5804 5804 5804 5804 5804 5804 5803 5802 5800 5799 5800 5800 5800 5800 5799 5799 5799 5799
5792 5790 5791 5790 5789 5787 5788 5789 5789 5790 5790 5790 5789 5787 5788 5788 5790 5791 5791 5790 5797 5795 5796 5797 5796 5797 5797 5797 5797 5797 5796 5795 5794 5793 5792 5791 5792 5792 5792 5792 5791 5791 5791
5786 5783 5780 5781 5781 5779 5778 5778 5778 5779 5778 5779 5778 5777 5779 5779 5779 5780 5781 5778 5783 5787 5785 5789 5786 5787 5789 5789 5789 5789 5789 5788 5787 5785 5784 5784 5784 5784 5784 5784 5784 5784 5783
5776 5774 5772 5772 5771 5769 5769 5767 5767 5768 5767 5766 5766 5766 5767 5767 5766 5769 5769 5770 5767 5773 5774 5777 5776 5776 5778 5779 5780 5780 5781 5781 5780 5778 5776 5775 5777 5776 5776 5776 5777 5777 5776
5764 5764 5762 5761 5760 5758 5758 5757 5758 5756 5755 5754 5755 5753 5753 5756 5756 5757 5757 5758 5757 5760 5761 5764 5765 5763 5767 5768 5768 5769 5769 5770 5771 5770 5768 5767 5767 5768 5767 5767 5768 5768 5767
5752 5752 5751 5750 5749 5746 5747 5746 5747 5747 5744 5742 5741 5742 5740 5742 5743 5740 5742 5744 5745 5746 5748 5752 5754 5751 5754 5757 5759 5759 5761 5761 5760 5759 5759 5758 5758 5757 5759 5759 5759 5759 5759
5738 5735 5733 5733 5733 5731 5730 5730 5730 5734 5730 5728 5728 5728 5732 5727 5722 5725 5729 5731 5735 5734 5735 5736 5740 5738 5738 5742 5745 5747 5750 5749 5750 5749 5748 5748 5748 5747 5747 5749 5750 5750 5751
5722 5720 5719 5717 5714 5714 5712 5710 5710 5711 5716 5713 5709 5714 5715 5716 5710 5705 5708 5717 5719 5719 5721 5722 5723 5724 5723 5725 5730 5732 5736 5738 5738 5739 5738 5738 5737 5739 5736 5735 5737 5739 5740
5704 5701 5699 5698 5697 5694 5693 5691 5691 5691 5692 5694 5693 5690 5694 5698 5697 5687 5686 5696 5695 5703 5705 5705 5708 5708 5709 5709 5711 5717 5720 5723 5726 5726 5726 5727 5726 5726 5727 5726 5725 5724 5727
5684 5682 5679 5678 5675 5673 5672 5669 5668 5668 5670 5670 5672 5673 5672 5672 5678 5667 5675 5677 5680 5684 5686 5687 5691 5694 5692 5696 5698 5702 5702 5706 5710 5713 5712 5713 5713 5713 5714 5714 5715 5715 5714
5659 5658 5655 5653 5651 5649 5646 5644 5644 5644 5644 5646 5646 5646 5650 5654 5657 5657 5658 5663 5662 5665 5668 5674 5671 5669 5677 5680 5683 5684 5685 5689 5692 5694 5697 5699 5699 5700 5700 5700 5703 5701 5703
5628 5624 5622 5621 5621 5620 5619 5617 5618 5618 5616 5618 5619 5620 5623 5625 5630 5633 5634 5640 5648 5647 5650 5654 5656 5655 5659 5661 5669 5667 5668 5669 5671 5675 5680 5684 5685 5686 5687 5686 5687 5688 5689
5596 5593 5590 5589 5586 5583 5583 5585 5587 5588 5589 5589 5593 5593 5595 5597 5602 5608 5613 5616 5623 5628 5630 5635 5638 5638 5645 5646 5651 5650 5652 5653 5654 5657 5664 5667 5669 5670 5671 5672 5671 5673 5675
5564 5563 5563 5564 5564 5559 5557 5557 5556 5558 5559 5562 5563 5567 5571 5574 5574 5580 5586 5593 5601 5609 5613 5615 5622 5622 5624 5627 5633 5634 5637 5634 5635 5640 5644 5650 5653 5654 5655 5656 5655 5658 5659
5538 5536 5535 5536 5536 5534 5536 5536 5537 5536 5537 5539 5541 5542 5547 5550 5553 5556 5564 5571 5577 5584 5591 5596 5601 5606 5607 5609 5615 5617 5618 5618 5617 5621 5626 5630 5633 5636 5638 5638 5640 5641 5643
5520 5518 5518 5519 5517 5517 5518 5518 5518 5519 5519 5521 5522 5521 5525 5528 5532 5536 5542 5548 5555 5560 5566 5572 5579 5586 5588 5590 5596 5597 5600 5599 5600 5605 5609 5611 5615 5617 5618 5621 5623 5623 5624
5505 5503 5503 5504 5502 5502 5502 5502 5502 5502 5503 5506 5506 5503 5505 5510 5514 5515 5520 5526 5530 5537 5544 5550 5557 5564 5569 5573 5576 5578 5580 5580 5587 5590 5592 5594 5595 5599 5601 5603 5606 5606 5607
5489 5489 5488 5490 5490 5489 5488 5487 5487 5487 5489 5490 5491 5490 5492 5494 5494 5494 5497 5500 5505 5513 5521 5531 5538 5542 5547 5553 5557 5559 5561 5563 5567 5571 5573 5576 5580 5582 5585 5587 5588 5589 5591
5475 5476 5477 5477 5478 5478 5477 5475 5474 5475 5477 5479 5480 5479 5478 5478 5475 5473 5476 5478 5483 5488 5495 5507 5518 5525 5527 5532 5535 5538 5541 5544 5550 5555 5556 5558 5562 5564 5568 5572 5573 5574 5577
5460 5461 5462 5464 5466 5467 5466 5465 5464 5465 5467 5468 5469 5470 5469 5468 5464 5460 5460 5463 5466 5469 5475 5482 5493 5501 5508 5512 5519 5523 5527 5530 5534 5538 5539 5543 5546 5550 5554 5559 5558 5560 5563
5446 5446 5447 5448 5451 5454 5455 5455 5455 5456 5458 5459 5460 5461 5461 5460 5457 5455 5453 5453 5456 5461 5461 5469 5474 5482 5490 5497 5503 5507 5511 5514 5518 5522 5527 5532 5535 5537 5542 5545 5544 5546 5550
5430 5431 5432 5434 5436 5439 5443 5445 5446 5446 5448 5451 5453 5454 5455 5456 5455 5454 5453 5452 5452 5454 5459 5463 5470 5475 5480 5486 5490 5494 5499 5506 5511 5515 5516 5519 5524 5526 5529 5531 5533 5534 5537
5416 5415 5417 5420 5422 5425 5428 5431 5434 5435 5437 5442 5444 5447 5448 5449 5449 5450 5451 5451 5452 5454 5456 5458 5463 5469 5473 5477 5483 5488 5492 5496 5500 5503 5506 5509 5511 5512 5516 5518 5522 5520 5521